Weather Roundup
Issued by NWS Corpus Christi, TX

Home | Current Version | Previous Version | Text Only | Print | Product List | Glossary On
Versions: 1 2 3 4 5 6 7 8 9 10 11 12 13 14 15 16 17 18 19 20 21 22 23 24 25 26 27 28 29 30 31 32 33 34 35 36 37 38 39 40 41 42 43 44 45 46 47 48 49 50
000
ASUS44 KCRP 210210
HRRCRP

SOUTH TEXAS REGIONAL WEATHER ROUNDUP
NATIONAL WEATHER SERVICE CORPUS CHRISTI TX
800 PM CST MON NOV 20 2017


TXZ229>244-210300-
...CORPUS CHRISTI AREA OBSERVATIONS...

CITY           SKY/WX    TMP DP  RH WIND       PRES   REMARKS
CORPUS CHRISTI CLOUDY    65  57  75 NE5       30.03F
NAS CORPUS CHR CLOUDY    67  61  81 CALM      30.02F
ROCKPORT       CLOUDY    66  60  81 E7        30.03F
KINGSVILLE ARP CLOUDY    63  58  82 CALM      30.04S
KINGSVILLE NAS CLOUDY    64  59  83 CALM      30.03S
ALICE          MOCLDY    62  53  72 SE3       30.03S
$$

...VICTORIA AREA OBSERVATIONS...

CITY           SKY/WX    TMP DP  RH WIND       PRES   REMARKS
PORT LAVACA    CLOUDY    64  56  75 E5        30.04F
VICTORIA       CLOUDY    63  53  70 SE6       30.04F
BEEVILLE       FAIR      60  53  78 SE3       30.03F
PLEASANTON     NOT AVBL
SAN ANTONIO    PTCLDY    61  45  55 S9        30.03S
$$

...LAREDO AREA OBSERVATIONS...

CITY           SKY/WX    TMP DP  RH WIND       PRES   REMARKS
LAREDO         CLEAR     60  51  72 SE7       30.04S
COTULLA        CLEAR     58  47  66 S6        30.03S
DEL RIO        CLOUDY    59  38  45 SE9       29.99S
MCALLEN        CLOUDY    65  56  72 CALM      30.04S
HEBBRONVILLE   PTCLDY    57  49  73 CALM      30.05S
$$

...OTHER TEXAS OBSERVATIONS...

CITY           SKY/WX    TMP DP  RH WIND       PRES   REMARKS
BROWNSVILLE    CLOUDY    67  63  87 N3        30.03R
HOUSTON        PTCLDY    56  48  74 SE8       30.06F
COL. STATION   CLEAR     57  47  69 S7        30.02F
AUSTIN         CLEAR     50  42  74 S5        30.01F
WACO           CLEAR     55  39  54 S8        29.99F
FORT WORTH     PTCLDY    56  33  42 S10       29.94F
WICHITA FALLS  CLOUDY    47  30  51 S9        29.88S
LUBBOCK        CLOUDY    60  15  17 SW13      29.85S
EL PASO        MOCLDY    61  23  23 SW8       30.03S
$$

...MARINE OBSERVATIONS...

STATION/POSITION TIME  SKY/WX   TEMP    WIND        PRES    VSBY  WAVE   SWELL
                                AIR SEA DIR/SP/G                  HT/PER HT/PER
                 (UTC)          (F)     (DEG/KT/KT) (MB)    (MI)  (FT/S) (FT/S)
PORT ARANSAS     0200            69 70  150/  6/  7 1016.6F
BUOY 90 E PORT A 0050            71 78  100/ 12/ 14 1016.5          3/ 6   2/ 6
BUOY 200 E PT IS 0050            72 80  100/ 14/ 17 1015.8          4/ 6   2/ 6
BUOY 15 E GALVES 0050            64 70  120/ 10/ 14 1018.3          2/ 5   2/ 5
$$



USA.gov is the U.S. government's official web portal to all federal, state and local government web resources and services.